| time (UTC) | temp F | wind direction | speed knots | gust knots | rain 1hr in | rain 24hr in | rain mn in | humidity % | barometer mb |
| 20260905160118 | 55 | 64 | 0.9 | 2.6 | 0.00 | 0.00 | 0.00 | ||
| 20260905153046 | 54 | 65 | 0.0 | 3.5 | 0.00 | 0.00 | 0.00 | ||
| 20260905150123 | 54 | 48 | 0.9 | 1.7 | 0.00 | 0.00 | 0.00 | ||
| 20260905143102 | 53 | 59 | 0.9 | 2.6 | 0.00 | 0.00 | 0.00 | ||
| 20260905140118 | 53 | 60 | 0.0 | 0.9 | 0.00 | 0.00 | 0.00 | ||
| 20260905133104 | 53 | 63 | 0.9 | 2.6 | 0.00 | 0.00 | 0.00 | ||
| 20260905130113 | 53 | 63 | 0.0 | 1.7 | 0.00 | 0.00 | 0.00 | ||
| 20260905120107 | 53 | 66 | 0.0 | 3.5 | 0.00 | 0.00 | 0.00 | ||
| 20260905113048 | 53 | 65 | 0.9 | 2.6 | 0.00 | 0.00 | 0.00 | ||
| 20260905110101 | 53 | 91 | 0.0 | 0.9 | 0.00 | 0.00 | 0.00 | ||
| 20260905103035 | 53 | 91 | 0.0 | 1.7 | 0.00 | 0.00 | 0.00 | ||
| 20260905093030 | 54 | 73 | 0.0 | 2.6 | 0.00 | 0.00 | 0.00 | ||
| 20260905083102 | 55 | 66 | 0.0 | 2.6 | 0.00 | 0.00 | 0.00 | ||
| 20260905073050 | 55 | 117 | 0.0 | 0.0 | 0.00 | 0.00 | 0.00 | ||
| 20260905070106 | 55 | 117 | 0.0 | 0.9 | 0.00 | 0.00 | 0.00 | ||
| 20260905063034 | 56 | 158 | 0.0 | 0.0 | 0.00 | 0.00 | 0.00 | ||
| 20260905053036 | 57 | 68 | 0.0 | 0.0 | 0.00 | 0.00 | 0.00 | ||
| 20260905050124 | 58 | 68 | 0.0 | 1.7 | 0.00 | 0.00 | 0.00 | ||
| 20260905043037 | 59 | 72 | 0.9 | 1.7 | 0.00 | 0.00 | 0.00 | ||
| 20260905040106 | 60 | 67 | 0.0 | 1.7 | 0.00 | 0.00 | 0.00 | ||
| 20260905030115 | 62 | 65 | 0.0 | 0.9 | 0.00 | 0.00 | 0.00 | ||
| 20260905023056 | 63 | 65 | 0.0 | 0.9 | 0.00 | 0.00 | 0.00 | ||
| 20260905020104 | 64 | 65 | 0.0 | 1.7 | 0.00 | 0.00 | 0.00 | ||
| 20260905013052 | 66 | 73 | 0.0 | 3.5 | 0.00 | 0.00 | 0.00 | ||
| 20260905010107 | 66 | 193 | 0.0 | 3.5 | 0.00 | 0.00 | 0.00 | ||
| 20260905003100 | 67 | 76 | 0.9 | 5.2 | 0.00 | 0.00 | 0.00 | ||
| 20260905000106 | 66 | 73 | 0.9 | 3.5 | 0.00 | 0.00 | 0.00 | ||
| 20260904233047 | 67 | 72 | 0.9 | 4.3 | 0.00 | 0.00 | 0.00 | ||
| 20260904223049 | 70 | 301 | 1.7 | 5.2 | 0.00 | 0.00 | 0.00 | ||
| 20260904220116 | 72 | 50 | 1.7 | 4.3 | 0.00 | 0.00 | 0.00 | ||
| 20260904213104 | 70 | 66 | 1.7 | 5.2 | 0.00 | 0.00 | 0.00 | ||
| 20260904203041 | 67 | 300 | 0.9 | 5.2 | 0.00 | 0.00 | 0.00 | ||
| 20260904200124 | 68 | 27 | 2.6 | 7.0 | 0.00 | 0.00 | 0.00 | ||
| 20260904193045 | 65 | 54 | 1.7 | 9.6 | 0.00 | 0.00 | 0.00 | ||
| 20260904190121 | 63 | 130 | 3.5 | 6.1 | 0.00 | 0.00 | 0.00 | ||
| 20260904183042 | 62 | 56 | 3.5 | 6.1 | 0.00 | 0.00 | 0.00 | ||
| 20260904170120 | 57 | 83 | 0.9 | 3.5 | 0.00 | 0.00 | 0.00 |